Port Hope, MI

9:51 AM EDT on October 19, 2017 (GMT -0400)
Port Hope

Weather History for KP58 - October, 2012

Change the Weather History Date:

Thursday, October 18, 2012

  Actual Average Record
Temperature  
Mean Temperature 56 °F -  
Max Temperature 63 °F 56 °F 77 °F (2016)
Min Temperature 50 °F 42 °F 33 °F (2001)
Degree Days  
Heating Degree Days 8    
Growing Degree Days 6 (Base 50)    
Moisture  
Dew Point 47 °F    
Average Humidity 73    
Maximum Humidity 87    
Minimum Humidity 55    
Precipitation  
Precipitation 0.21 in - - ()
Sea Level Pressure  
Sea Level Pressure 29.52 in    
Wind  
Wind Speed 9 mph (SSE)    
Max Wind Speed 16 mph    
Max Gust Speed 32 mph    
Averages and records for this station are not official NWS values.
T = Trace of Precipitation, MM = Missing Value Source: NWS Daily Summary

Daily Weather History Graph

Daily Weather History Graph

Search for Another Location

Airport or City:

Trip Planner

Search our weather history database for the weather conditions in past years. The results will help you decide how hot, cold, wet, or windy it might be!

Date:

Astronomy

Oct. 18, 2012 Rise Set
Actual Time 7:50 AM EDT 6:41 PM EDT
Civil Twilight 7:20 AM EDT 7:10 PM EDT
Nautical Twilight 6:47 AM EDT 7:44 PM EDT
Astronomical Twilight 6:13 AM EDT 8:17 PM EDT
Moon 11:38 AM EDT (10/18) 9:07 PM EDT (10/18)
Length of Visible Light 11h 49m
Length of Day
10h 51m
Waxing Crescent, 14% of the Moon is Illuminated
Oct 18
Waxing Crescent
Oct 21
First Quarter
Oct 29
Full
Nov 6
Last Quarter
Nov 13
New

Hourly Weather History & Observations

Time (EDT) Temp. Dew Point Humidity Pressure Visibility Wind Dir Wind Speed Gust Speed Precip Events Conditions
12:51 AM 63.0 °F 48.0 °F 58% 29.53 in - SSE 11.5 mph 19.6 mph N/A   Unknown
1:51 AM 61.0 °F 52.0 °F 72% 29.53 in - South 4.6 mph - N/A   Unknown
2:51 AM 59.0 °F 53.1 °F 81% 29.54 in - SSE 5.8 mph - 0.01 in   Unknown
3:51 AM 57.9 °F 54.0 °F 87% 29.51 in - SSE 5.8 mph - 0.06 in   Unknown
4:51 AM 57.9 °F 53.1 °F 84% 29.46 in - SE 16.1 mph 23.0 mph N/A   Unknown
5:51 AM 57.9 °F 50.0 °F 75% 29.43 in - SE 16.1 mph 26.5 mph N/A   Unknown
6:51 AM 57.0 °F 48.0 °F 72% 29.42 in - SE 12.7 mph 21.9 mph N/A   Unknown
7:51 AM 57.0 °F 48.0 °F 72% 29.41 in - SE 15.0 mph 27.6 mph N/A   Unknown
8:51 AM 57.0 °F 48.0 °F 72% 29.40 in - SE 15.0 mph 28.8 mph N/A   Unknown
9:51 AM 57.9 °F 48.9 °F 72% 29.40 in - SSE 15.0 mph 32.2 mph N/A   Unknown
10:51 AM 60.1 °F 48.9 °F 67% 29.39 in - SSE 12.7 mph 28.8 mph N/A   Unknown
11:51 AM 57.0 °F 50.0 °F 77% 29.42 in - SSE 8.1 mph 21.9 mph 0.01 in   Unknown
12:51 PM 51.1 °F 46.9 °F 86% 29.47 in - Variable 3.5 mph - 0.11 in   Unknown
1:51 PM 52.0 °F 48.0 °F 86% 29.47 in - Calm Calm - 0.02 in   Unknown
2:51 PM 54.0 °F 48.9 °F 83% 29.50 in - Variable 5.8 mph - N/A   Unknown
3:51 PM 53.1 °F 46.9 °F 80% 29.53 in - Variable 4.6 mph - N/A   Unknown
4:51 PM 55.9 °F 44.1 °F 64% 29.55 in - Variable 4.6 mph - N/A   Unknown
5:51 PM 55.9 °F 39.9 °F 55% 29.58 in - Calm Calm - N/A   Unknown
6:51 PM 51.1 °F 41.0 °F 68% 29.61 in - SSE 3.5 mph - N/A   Unknown
7:51 PM 50.0 °F 39.0 °F 66% 29.62 in - SSE 5.8 mph - N/A   Unknown
8:51 PM 50.0 °F 37.0 °F 61% 29.64 in - SSE 4.6 mph - N/A   Unknown
9:51 PM 50.0 °F 39.0 °F 66% 29.65 in - SSE 5.8 mph - N/A   Unknown
10:51 PM 52.0 °F 42.1 °F 69% 29.66 in - SSE 6.9 mph - N/A   Unknown
11:51 PM 53.1 °F 46.0 °F 77% 29.65 in - SE 9.2 mph - N/A   Unknown